Location: Bonaustraße
(48.4603°N, 11.9280°E)
Time: 20:41:47
(UTC+02:00)

AO-92 - Pass Details

Date: 02 August 2021
Orbit: 484 x 494 km, 97.4° (Epoch: 16 September)

Event Time Altitude Azimuth Distance (km) Brightness Sun altitude
Exits shadow 00:24:05 11° 259° (WSW) 1,617 ? -22.7°
Maximum altitude 00:24:51 11° 271° (W) 1,585 ? -22.7°
Drops below altitude 10° 00:26:04 10° 291° (WNW) 1,673 ? -22.7°
Sets 00:29:29 0° 327° (NNW) 2,562 ? -22.9°
